Time,TemperatureF,DewpointF,PressureIn,WindDirection,WindDirectionDegrees,WindSpeedMPH,WindSpeedGustMPH,Humidity,HourlyPrecipIn,Conditions,Clouds,dailyrainin,SoftwareType,DateUTC
2013-07-03 00:02:00,72.7,66.2,29.82,North,0,0.0,-999.0,80,-99.99,,,0.00,Acu-Link.com,2013-07-03 10:02:00,
2013-07-03 00:18:00,72.5,66.3,29.81,North,0,0.0,-999.0,81,-99.99,,,0.00,Acu-Link.com,2013-07-03 10:18:00,
2013-07-03 07:19:00,70.7,70.1,29.88,NNE,22,0.0,-999.0,98,-99.99,,,0.00,Acu-Link.com,2013-07-03 17:19:00,
2013-07-03 07:35:00,71.8,71.2,29.84,North,0,0.0,-999.0,98,-99.99,,,0.00,Acu-Link.com,2013-07-03 17:35:00,
2013-07-03 07:50:00,72.5,71.9,29.83,NNE,22,0.0,-999.0,98,-99.99,,,0.00,Acu-Link.com,2013-07-03 17:50:00,
2013-07-03 08:05:00,73.2,69.8,29.83,North,0,0.0,-999.0,89,-99.99,,,0.00,Acu-Link.com,2013-07-03 18:05:00,
2013-07-03 08:21:00,74.3,69.1,29.86,NNE,22,0.0,-999.0,84,-99.99,,,0.00,Acu-Link.com,2013-07-03 18:21:00,
2013-07-03 08:36:00,76.5,70.6,29.84,West,270,1.7,-999.0,82,-99.99,,,0.00,Acu-Link.com,2013-07-03 18:36:00,
2013-07-03 08:51:00,78.6,70.8,29.84,WNW,292,1.1,-999.0,77,-99.99,,,0.00,Acu-Link.com,2013-07-03 18:51:00,
2013-07-03 09:06:00,80.4,71.3,29.84,NNW,337,0.0,-999.0,74,-99.99,,,0.00,Acu-Link.com,2013-07-03 19:06:00,
2013-07-03 09:21:00,80.8,70.5,29.84,WNW,292,1.7,-999.0,71,-99.99,,,0.00,Acu-Link.com,2013-07-03 19:21:00,
2013-07-03 09:36:00,82.4,70.8,29.87,SW,225,0.0,-999.0,68,-99.99,,,0.00,Acu-Link.com,2013-07-03 19:36:00,
2013-07-03 09:52:00,82.9,70.3,29.87,West,270,3.2,-999.0,66,-99.99,,,0.00,Acu-Link.com,2013-07-03 19:52:00,
2013-07-03 10:07:00,84.2,71.1,29.85,WSW,247,0.0,-999.0,65,-99.99,,,0.00,Acu-Link.com,2013-07-03 20:07:00,
2013-07-03 10:53:00,82.6,70.9,29.84,NNE,22,1.7,-999.0,68,-99.99,,,0.00,Acu-Link.com,2013-07-03 20:53:00,
2013-07-03 11:08:00,84.4,70.9,29.86,SSW,202,1.7,-999.0,64,-99.99,,,0.00,Acu-Link.com,2013-07-03 21:08:00,
2013-07-03 11:23:00,83.7,70.2,29.85,NNW,337,0.0,-999.0,64,-99.99,,,0.00,Acu-Link.com,2013-07-03 21:23:00,
2013-07-03 11:38:00,86.4,71.8,29.83,North,0,1.7,-999.0,62,-99.99,,,0.00,Acu-Link.com,2013-07-03 21:38:00,
2013-07-03 12:09:00,85.6,71.1,29.82,NNW,337,2.7,-999.0,62,-99.99,,,0.00,Acu-Link.com,2013-07-03 22:09:00,
2013-07-03 12:39:00,86.9,71.8,29.82,SW,225,2.2,-999.0,61,-99.99,,,0.00,Acu-Link.com,2013-07-03 22:39:00,
2013-07-03 12:55:00,86.4,71.3,29.83,SW,225,2.2,-999.0,61,-99.99,,,0.00,Acu-Link.com,2013-07-03 22:55:00,
2013-07-03 13:25:00,86.4,71.8,29.81,WNW,292,2.2,-999.0,62,-99.99,,,0.00,Acu-Link.com,2013-07-03 23:25:00,
2013-07-03 13:56:00,86.4,71.8,29.81,ESE,112,2.7,-999.0,62,-99.99,,,0.00,Acu-Link.com,2013-07-03 23:56:00,
2013-07-03 14:27:00,86.5,70.9,29.79,SSE,157,2.7,-999.0,60,-99.99,,,0.00,Acu-Link.com,2013-07-04 00:27:00,
2013-07-03 14:57:00,85.1,69.6,29.78,NNW,337,4.7,-999.0,60,-99.99,,,0.00,Acu-Link.com,2013-07-04 00:57:00,
2013-07-03 15:12:00,87.4,70.8,29.80,North,0,2.7,-999.0,58,-99.99,,,0.00,Acu-Link.com,2013-07-04 01:12:00,
2013-07-03 15:28:00,87.4,69.2,29.78,NNE,22,3.7,-999.0,55,-99.99,,,0.00,Acu-Link.com,2013-07-04 01:28:00,
2013-07-03 15:43:00,87.4,70.8,29.80,WNW,292,1.7,-999.0,58,-99.99,,,0.00,Acu-Link.com,2013-07-04 01:43:00,
2013-07-03 16:13:00,86.7,71.1,29.75,NW,315,2.7,-999.0,60,-99.99,,,0.00,Acu-Link.com,2013-07-04 02:13:00,
2013-07-03 16:28:00,86.9,70.3,29.76,North,0,2.7,-999.0,58,-99.99,,,0.00,Acu-Link.com,2013-07-04 02:28:00,
2013-07-03 16:44:00,83.1,69.6,29.76,NW,315,0.0,-999.0,64,-99.99,,,0.00,Acu-Link.com,2013-07-04 02:44:00,
2013-07-03 16:59:00,84.7,69.7,29.77,NNW,337,2.2,-999.0,61,-99.99,,,0.00,Acu-Link.com,2013-07-04 02:59:00,
2013-07-03 17:14:00,83.7,68.8,29.77,North,0,3.2,-999.0,61,-99.99,,,0.00,Acu-Link.com,2013-07-04 03:14:00,
2013-07-03 17:45:00,81.9,68.0,29.76,North,0,7.8,-999.0,63,-99.99,,,0.00,Acu-Link.com,2013-07-04 03:45:00,
2013-07-03 18:15:00,81.3,67.0,29.77,NNW,337,2.2,-999.0,62,-99.99,,,0.00,Acu-Link.com,2013-07-04 04:15:00,
2013-07-03 18:30:00,79.0,66.7,29.79,ENE,67,2.7,-999.0,66,-99.99,,,0.00,Acu-Link.com,2013-07-04 04:30:00,
2013-07-03 18:46:00,77.5,66.5,29.79,NNW,337,4.7,-999.0,69,-99.99,,,0.00,Acu-Link.com,2013-07-04 04:46:00,
2013-07-03 19:01:00,77.0,66.0,29.80,West,270,2.2,-999.0,69,-99.99,,,0.00,Acu-Link.com,2013-07-04 05:01:00,
2013-07-03 19:16:00,76.5,66.0,29.83,NNW,337,3.2,-999.0,70,-99.99,,,0.00,Acu-Link.com,2013-07-04 05:16:00,
2013-07-03 19:31:00,76.1,66.4,29.81,ESE,112,1.7,-999.0,72,-99.99,,,0.00,Acu-Link.com,2013-07-04 05:31:00,
2013-07-03 19:46:00,75.7,66.0,29.81,WSW,247,1.7,-999.0,72,-99.99,,,0.00,Acu-Link.com,2013-07-04 05:46:00,
2013-07-03 20:01:00,75.7,66.8,29.83,WSW,247,2.2,-999.0,74,-99.99,,,0.00,Acu-Link.com,2013-07-04 06:01:00,
2013-07-03 20:17:00,75.6,66.7,29.82,North,0,3.7,-999.0,74,-99.99,,,0.00,Acu-Link.com,2013-07-04 06:17:00,
2013-07-03 20:32:00,75.0,66.9,29.81,WNW,292,0.0,-999.0,76,-99.99,,,0.00,Acu-Link.com,2013-07-04 06:32:00,
2013-07-03 20:47:00,75.0,66.5,29.84,NNW,337,0.0,-999.0,75,-99.99,,,0.00,Acu-Link.com,2013-07-04 06:47:00,
2013-07-03 21:03:00,74.8,66.3,29.82,North,0,0.0,-999.0,75,-99.99,,,0.00,Acu-Link.com,2013-07-04 07:03:00,
2013-07-03 21:18:00,74.8,66.7,29.82,NNW,337,0.0,-999.0,76,-99.99,,,0.00,Acu-Link.com,2013-07-04 07:18:00,
2013-07-03 21:33:00,74.8,66.7,29.85,NE,45,1.7,-999.0,76,-99.99,,,0.00,Acu-Link.com,2013-07-04 07:33:00,
2013-07-03 21:49:00,74.8,67.1,29.84,SE,135,0.0,-999.0,77,-99.99,,,0.00,Acu-Link.com,2013-07-04 07:49:00,
2013-07-03 22:04:00,74.5,67.2,29.85,SSW,202,1.7,-999.0,78,-99.99,,,0.00,Acu-Link.com,2013-07-04 08:04:00,
2013-07-03 22:19:00,74.5,67.2,29.86,SW,225,1.1,-999.0,78,-99.99,,,0.00,Acu-Link.com,2013-07-04 08:19:00,
2013-07-03 22:35:00,74.3,66.6,29.84,North,0,0.0,-999.0,77,-99.99,,,0.00,Acu-Link.com,2013-07-04 08:35:00,
2013-07-03 22:50:00,74.3,66.6,29.84,North,0,0.0,-999.0,77,-99.99,,,0.00,Acu-Link.com,2013-07-04 08:50:00,
2013-07-03 23:05:00,73.9,66.2,29.85,SE,135,1.1,-999.0,77,-99.99,,,0.00,Acu-Link.com,2013-07-04 09:05:00,
2013-07-03 23:20:00,74.1,66.8,29.85,West,270,1.1,-999.0,78,-99.99,,,0.00,Acu-Link.com,2013-07-04 09:20:00,
2013-07-03 23:35:00,73.8,66.9,29.85,West,270,1.7,-999.0,79,-99.99,,,0.00,Acu-Link.com,2013-07-04 09:35:00,
2013-07-03 23:50:00,72.9,66.4,29.85,West,270,0.0,-999.0,80,-99.99,,,0.00,Acu-Link.com,2013-07-04 09:50:00,